Location: Baturyn
(53.6332°N, 113.5041°W)
Time: 05:05:12
(UTC+00:00)

N. Korean satellite - Pass Details

Date: 06 December 2021
Orbit: 446 x 492 km, 97.3° (Epoch: 16 January)

Event Time Altitude Azimuth Distance (km) Brightness Sun altitude
Rises 13:08:41 0° 12° (NNE) 2,473 10.2 -20.4°
Reaches altitude 10° 13:10:43 10° 12° (NNE) 1,592 9.2 -20.1°
Maximum altitude 13:14:08 80° 286° (WNW) 462 6.2 -19.6°
Drops below altitude 10° 13:17:30 10° 199° (SSW) 1,573 9.1 -19.1°
Sets 13:19:23 0° 198° (SSW) 2,388 10.0 -18.8°
